Weather History for Omaha Millard, NE

Change the Weather History Date:

Wednesday, October 9, 2013

  Actual Average (KOMA) Record (KOMA)
Temperature  
Mean Temperature 64 °F 56 °F  
Max Temperature 77 °F 68 °F 88 °F (1928)
Min Temperature 51 °F 44 °F 25 °F (2000)
Degree Days  
Heating Degree Days 1 10  
Month to date heating degree days 78  
Since 1 July heating degree days 181  
Cooling Degree Days 0 1  
Month to date cooling degree days 9  
Year to date cooling degree days 1106  
Growing Degree Days 14 (Base 50)    
Moisture  
Dew Point 48 °F    
Average Humidity 59    
Maximum Humidity 81    
Minimum Humidity 38    
Precipitation  
Precipitation 0.00 in 0.07 in 1.58 in (1970)
Month to date precipitation 0.69  
Year to date precipitation 26.48  
Snow  
Snow 0.00 in 0.00 in - ()
Month to date snowfall 0.0  
Since 1 July snowfall 0.0  
Snow Depth -    
Sea Level Pressure  
Sea Level Pressure 29.98 in    
Wind  
Wind Speed 10 mph (SE)    
Max Wind Speed 21 mph    
Max Gust Speed 26 mph    
Visibility 10 miles    
Events      
T = Trace of Precipitation, MM = Missing Value Source: NWS Daily Summary

Daily Weather History Graph

Daily Weather History Graph

Search for Another Location

Airport:

Trip Planner

Search our weather history database for the weather conditions in past years. The results will help you decide how hot, cold, wet, or windy it might be!

Date:

Astronomy

Oct. 09, 2013 Rise Set
Actual Time 7:29 AM CDT 6:52 PM CDT
Civil Twilight 7:02 AM CDT 7:20 PM CDT
Nautical Twilight 6:30 AM CDT 7:52 PM CDT
Astronomical Twilight 5:58 AM CDT 8:24 PM CDT
Moon 12:28 PM CDT (10/9) 10:26 PM CDT (10/9)
Length of Visible Light 12h 18m
Length of Day
11h 22m
Waxing Crescent, 25% of the Moon is Illuminated
Oct 9
Waxing Crescent
Oct 11
First Quarter
Oct 18
Full
Oct 26
Last Quarter
Nov 3
New

Hourly Weather History & Observations

Time (CDT) Temp. Dew Point Humidity Pressure Visibility Wind Dir Wind Speed Gust Speed Precip Events Conditions
12:15 AM 61.7 °F 45.5 °F 55% 29.96 in 10.0 mi SSE 10.4 mph 16.1 mph N/A   Clear
12:35 AM 60.8 °F 45.9 °F 58% 29.96 in 10.0 mi SSE 9.2 mph - N/A   Clear
12:55 AM 60.3 °F 46.0 °F 59% 29.98 in 10.0 mi SE 8.1 mph - N/A   Clear
1:15 AM 58.3 °F 46.4 °F 65% 29.98 in 10.0 mi SE 6.9 mph - N/A   Clear
1:35 AM 57.7 °F 46.6 °F 66% 29.98 in 10.0 mi SE 8.1 mph - N/A   Clear
1:55 AM 57.2 °F 46.6 °F 68% 29.98 in 10.0 mi ESE 5.8 mph - N/A   Clear
2:15 AM 56.7 °F 46.6 °F 69% 29.98 in 10.0 mi ESE 5.8 mph - N/A   Clear
2:35 AM 56.3 °F 46.6 °F 70% 29.98 in 10.0 mi SE 5.8 mph - N/A   Clear
2:55 AM 54.9 °F 46.4 °F 73% 29.98 in 10.0 mi SE 6.9 mph - N/A   Clear
3:15 AM 55.0 °F 46.6 °F 73% 29.98 in 10.0 mi SE 5.8 mph - N/A   Clear
3:35 AM 54.1 °F 46.6 °F 76% 29.98 in 10.0 mi SE 6.9 mph - N/A   Clear
3:55 AM 54.7 °F 46.6 °F 74% 29.98 in 10.0 mi SE 5.8 mph - N/A   Clear
4:15 AM 54.7 °F 46.4 °F 74% 29.98 in 10.0 mi SE 8.1 mph - N/A   Clear
4:35 AM 54.5 °F 46.4 °F 74% 29.98 in 10.0 mi ESE 5.8 mph - N/A   Clear
4:55 AM 54.7 °F 46.4 °F 74% 29.98 in 10.0 mi SE 8.1 mph - N/A   Clear
5:15 AM 53.6 °F 46.2 °F 76% 29.98 in 10.0 mi SE 6.9 mph - N/A   Clear
5:35 AM 52.7 °F 45.9 °F 78% 29.99 in 10.0 mi SE 8.1 mph - N/A   Clear
5:55 AM 53.1 °F 46.2 °F 78% 29.99 in 10.0 mi SE 5.8 mph - N/A   Clear
6:15 AM 52.5 °F 46.0 °F 79% 29.99 in 10.0 mi SE 6.9 mph - N/A   Clear
6:35 AM 51.8 °F 46.0 °F 81% 29.99 in 10.0 mi SE 8.1 mph - N/A   Clear
6:55 AM 51.8 °F 45.9 °F 80% 29.99 in 10.0 mi SE 6.9 mph - N/A   Clear
7:15 AM 52.2 °F 45.9 °F 79% 29.99 in 10.0 mi SE 6.9 mph - N/A   Clear
7:35 AM 52.5 °F 46.0 °F 79% 30.00 in 10.0 mi SE 6.9 mph - N/A   Clear
7:55 AM 52.7 °F 46.2 °F 79% 30.00 in 10.0 mi SE 6.9 mph - N/A   Clear
8:15 AM 53.6 °F 46.8 °F 78% 30.00 in 10.0 mi SE 8.1 mph - N/A   Clear
8:35 AM 55.2 °F 47.3 °F 75% 30.00 in 10.0 mi SE 9.2 mph - N/A   Clear
8:55 AM 56.7 °F 47.3 °F 71% 30.01 in 10.0 mi SSE 12.7 mph - N/A   Clear
9:15 AM 58.3 °F 47.5 °F 67% 30.01 in 10.0 mi SE 12.7 mph - N/A   Clear
9:35 AM 60.3 °F 47.8 °F 64% 30.01 in 10.0 mi SSE 11.5 mph - N/A   Clear
9:55 AM 61.7 °F 48.2 °F 61% 30.01 in 10.0 mi SSE 10.4 mph 19.6 mph N/A   Clear
10:15 AM 62.8 °F 48.7 °F 60% 30.01 in 10.0 mi SE 12.7 mph - N/A   Clear
10:35 AM 64.6 °F 49.1 °F 57% 30.01 in 10.0 mi SSE 15.0 mph 18.4 mph N/A   Clear
10:55 AM 66.6 °F 49.6 °F 54% 30.01 in 10.0 mi SSE 9.2 mph 18.4 mph N/A   Clear
11:15 AM 68.0 °F 48.6 °F 50% 30.01 in 10.0 mi SSE 16.1 mph - N/A   Clear
11:35 AM 69.6 °F 49.6 °F 49% 30.01 in 10.0 mi SSE 16.1 mph - N/A   Clear
11:55 AM 70.2 °F 48.9 °F 47% 30.00 in 10.0 mi SSE 16.1 mph 21.9 mph N/A   Clear
12:15 PM 71.4 °F 49.5 °F 46% 30.00 in 10.0 mi SSE 16.1 mph 21.9 mph N/A   Clear
12:35 PM 72.7 °F 49.8 °F 44% 30.00 in 10.0 mi SSE 17.3 mph - N/A   Clear
12:55 PM 73.6 °F 50.7 °F 45% 29.99 in 10.0 mi SSE 12.7 mph 19.6 mph N/A   Clear
1:15 PM 74.5 °F 49.5 °F 41% 29.99 in 10.0 mi SSE 13.8 mph 23.0 mph N/A   Clear
1:35 PM 75.2 °F 49.3 °F 40% 29.98 in 10.0 mi SE 15.0 mph 20.7 mph N/A   Clear
1:55 PM 76.1 °F 50.4 °F 40% 29.96 in 10.0 mi SE 13.8 mph 19.6 mph N/A   Clear
2:15 PM 76.5 °F 50.9 °F 41% 29.96 in 10.0 mi SE 17.3 mph - N/A   Clear
2:35 PM 76.8 °F 50.9 °F 40% 29.95 in 10.0 mi SE 18.4 mph - N/A   Clear
2:55 PM 76.5 °F 51.3 °F 41% 29.95 in 10.0 mi SE 13.8 mph 18.4 mph N/A   Clear
3:15 PM 76.6 °F 51.4 °F 41% 29.95 in 10.0 mi SE 12.7 mph 21.9 mph N/A   Clear
3:55 PM 77.2 °F 50.0 °F 38% 29.94 in 10.0 mi SE 17.3 mph 23.0 mph N/A   Clear
4:15 PM 77.5 °F 50.4 °F 38% 29.94 in 10.0 mi SE 12.7 mph 20.7 mph N/A   Clear
4:35 PM 77.2 °F 50.0 °F 38% 29.94 in 10.0 mi SE 19.6 mph 26.5 mph N/A   Clear
4:55 PM 77.0 °F 49.8 °F 38% 29.94 in 10.0 mi SE 20.7 mph - N/A   Clear
5:15 PM 76.8 °F 49.5 °F 38% 29.93 in 10.0 mi SE 18.4 mph 23.0 mph N/A   Clear
5:35 PM 76.1 °F 49.1 °F 39% 29.92 in 10.0 mi SE 19.6 mph 24.2 mph N/A   Clear
5:55 PM 74.8 °F 49.8 °F 41% 29.93 in 10.0 mi SE 15.0 mph 20.7 mph N/A   Clear
6:15 PM 73.4 °F 50.4 °F 44% 29.93 in 10.0 mi SE 16.1 mph 19.6 mph N/A   Clear
6:55 PM 70.7 °F 50.2 °F 48% 29.94 in 10.0 mi SE 10.4 mph - N/A   Clear
7:15 PM 68.9 °F 50.2 °F 51% 29.94 in 10.0 mi SE 11.5 mph - N/A   Clear
7:35 PM 67.3 °F 50.0 °F 54% 29.95 in 10.0 mi SE 10.4 mph - N/A   Clear
7:55 PM 67.1 °F 49.5 °F 53% 29.95 in 10.0 mi SE 10.4 mph - N/A   Clear
8:15 PM 66.4 °F 49.1 °F 54% 29.96 in 10.0 mi SE 10.4 mph 16.1 mph N/A   Clear
8:35 PM 65.7 °F 48.6 °F 54% 29.96 in 10.0 mi SE 9.2 mph - N/A   Clear
8:55 PM 64.8 °F 48.7 °F 56% 29.96 in 10.0 mi SE 9.2 mph - N/A   Clear
9:15 PM 63.5 °F 48.6 °F 58% 29.96 in 10.0 mi SE 8.1 mph - N/A   Clear
9:35 PM 63.5 °F 48.6 °F 58% 29.98 in 10.0 mi SE 10.4 mph - N/A   Clear
9:55 PM 62.6 °F 48.7 °F 60% 29.98 in 10.0 mi SE 8.1 mph - N/A   Clear
10:15 PM 62.1 °F 48.9 °F 62% 29.98 in 10.0 mi SE 8.1 mph - N/A   Clear
10:35 PM 61.3 °F 48.9 °F 64% 29.99 in 10.0 mi SE 8.1 mph - N/A   Clear
10:55 PM 60.8 °F 48.9 °F 65% 29.99 in 10.0 mi SE 5.8 mph - N/A   Clear
11:15 PM 61.3 °F 48.7 °F 63% 29.99 in 10.0 mi SSE 6.9 mph - N/A   Clear
11:55 PM 61.0 °F 48.7 °F 64% 30.00 in 10.0 mi SSE 9.2 mph - N/A   Clear